Dewpoint
61 61 60 60 60 61 61 61 61 61 61 62 63 63 63 62 60 40 29 41 55 68 64 47 47 43 46 44 44 44 39 36 33 34 30 28 25 22 20 16 19 21 21 22 23
62 61 61 60 61 61 61 61 61 61 61 62 62 63 63 62 42 30 47 64 68 69 50 44 45 43 40 39 34 35 38 35 31 31 29 29 25 22 18 16 17 19 19 20 20
61 61 61 61 61 61 61 61 61 62 62 62 61 61 62 59 37 27 60 64 66 65 53 47 41 40 38 33 30 31 32 32 30 31 31 26 25 25 19 19 17 17 18 19 20
62 62 61 61 61 61 61 61 61 62 62 62 61 61 61 43 24 29 59 63 64 52 45 40 39 39 36 30 30 27 26 30 32 28 29 26 23 22 22 22 19 18 17 18 14
62 62 62 62 61 61 61 61 61 61 62 61 62 62 43 30 25 31 58 54 41 37 37 39 36 35 32 27 27 26 25 24 27 26 24 24 23 22 19 19 18 18 17 16 13
62 62 62 62 61 61 61 61 61 61 61 61 61 61 40 24 24 29 31 33 34 35 35 34 34 31 27 26 27 26 24 24 26 24 25 25 23 21 19 17 17 17 16 15 15
62 62 62 61 61 61 61 61 60 61 61 61 61 47 29 23 24 26 31 33 35 39 35 33 33 30 28 25 26 23 21 23 22 22 24 24 22 19 17 14 15 15 14 13 16
62 61 61 61 61 61 61 61 60 60 61 61 60 33 23 26 26 24 29 30 30 31 33 32 31 29 28 26 24 22 23 23 23 23 22 20 17 21 15 12 12 12 13 14 17
61 61 61 60 60 61 60 60 60 60 59 58 36 26 22 36 24 24 25 28 28 28 30 25 31 27 27 24 22 23 18 22 23 22 19 18 19 17 15 12 11 10 11 14 17
61 60 60 60 60 60 60 59 58 56 46 41 33 21 22 22 25 24 25 30 29 32 31 30 28 27 26 23 16 13 11 10 21 20 19 19 17 17 15 13 13 11 11 14 16
60 60 59 59 60 59 53 42 35 33 37 27 23 22 20 22 24 21 23 26 28 27 22 29 21 21 18 18 17 15 13 12 21 21 18 18 18 20 16 13 12 13 11 13 16
59 59 59 59 59 58 52 39 39 39 33 31 22 21 22 21 20 21 23 22 26 22 24 23 20 17 20 20 19 17 13 12 18 20 15 13 14 16 16 13 13 14 13 11 14
59 59 58 58 57 51 40 40 41 42 31 30 27 23 23 21 23 20 22 22 22 20 20 19 20 21 20 20 18 16 14 11 10 17 17 14 15 17 18 16 15 16 16 12 12
59 58 58 57 48 43 39 40 41 40 25 25 25 25 24 28 27 23 24 27 21 19 21 19 19 20 21 19 16 15 17 17 17 17 13 15 7 15 17 19 15 15 16 15 11
57 57 57 57 51 41 40 41 40 37 20 26 24 26 23 24 25 26 26 25 23 21 17 19 18 19 20 18 13 16 21 18 21 17 16 17 12 12 17 16 18 17 16 17 15
56 55 56 55 53 42 42 42 40 28 21 24 24 23 20 24 23 27 25 26 26 23 21 19 17 16 16 15 16 20 18 20 22 20 18 17 13 7 15 15 15 18 18 17 17
55 55 55 54 46 44 42 39 28 22 23 21 22 23 21 21 21 22 21 20 19 17 18 19 17 13 15 16 18 17 17 21 24 19 17 13 9 9 14 15 15 16 19 18 17
55 55 54 54 53 47 40 31 25 25 19 25 24 22 21 21 20 20 20 19 21 19 18 18 15 17 13 12 14 15 15 19 9 14 15 15 10 10 16 16 15 18 18 18 18
54 53 52 51 53 41 36 29 22 24 23 24 23 20 20 22 20 19 18 19 19 18 14 15 17 13 11 9 12 16 15 16 11 19 16 16 18 16 16 14 14 14 16 18 18
49 51 50 42 41 39 34 32 25 28 26 25 20 21 20 20 17 18 19 21 22 21 19 17 13 15 14 12 14 11 16 15 21 13 16 16 14 13 15 14 14 14 14 17 19
49 46 42 40 39 35 30 29 28 28 28 26 26 24 21 21 19 19 20 23 24 22 20 18 14 15 16 13 14 11 10 11 15 22 14 15 11 14 12 17 12 14 16 17 20
49 40 42 40 33 33 29 28 34 28 30 30 27 27 25 24 21 21 23 24 24 22 17 19 18 15 14 14 15 13 12 13 21 17 16 22 17 19 12 17 16 13 14 18 18
46 42 41 39 35 34 34 31 33 31 28 28 28 28 27 25 22 25 28 31 29 25 21 18 14 14 14 20 17 12 13 11 22 25 22 19 17 17 10 11 12 14 17 16 19
46 38 38 37 38 36 34 33 30 33 32 31 28 28 27 25 25 25 28 29 29 28 39 31 19 17 19 19 21 14 17 14 15 19 17 20 15 13 17 21 21 18 16 18 18
45 40 40 36 36 36 36 36 34 31 31 30 28 28 26 26 25 24 29 26 28 35 25 22 17 20 20 21 19 18 20 18 14 14 17 14 20 19 19 17 17 19 19 19 17
44 40 40 40 37 36 37 34 33 34 30 29 28 30 28 26 26 25 27 26 24 28 23 22 19 22 19 20 20 20 19 20 18 15 14 14 14 16 17 19 21 22 22 21 18
49 45 41 40 36 35 36 34 33 33 32 32 29 29 28 30 27 27 27 27 28 26 25 22 22 22 19 21 19 18 18 19 19 20 18 16 17 19 20 22 22 21 21 21 20
Lifted_Index
7 8 8 8 9 9 9 8 8 8 8 7 7 7 7 7 9 9 9 8 5 4 4 5 5 5 6 6 6 5 4 4 3 3 4 5 5 6 7 7 7 8 9 11 13
8 8 8 8 9 9 9 9 8 8 8 8 7 7 7 8 9 9 9 7 4 3 4 5 5 5 6 6 6 6 5 4 4 5 5 6 6 7 7 8 8 9 10 12 14
8 8 8 8 9 9 9 9 8 8 8 8 8 8 8 8 8 9 9 7 5 4 5 5 5 6 6 6 7 7 6 6 6 6 7 7 8 8 8 8 9 10 12 13 14
8 8 8 8 8 9 9 9 8 8 8 8 8 8 9 8 8 10 10 9 8 7 6 6 6 6 6 7 7 7 7 7 8 8 8 8 8 9 9 9 10 11 13 14 14
8 8 8 8 8 8 9 9 8 8 9 9 8 9 9 9 9 10 11 10 9 8 7 6 6 6 6 7 8 8 8 8 8 8 9 9 9 9 10 11 11 12 14 15 15
8 8 8 8 9 9 9 9 9 9 9 9 9 9 10 10 10 11 11 10 9 9 8 7 7 7 7 8 8 8 8 8 8 8 9 8 8 9 10 11 12 13 15 15 16
9 9 9 9 9 9 9 9 9 10 10 9 9 10 10 10 11 11 11 10 9 9 9 8 8 8 8 8 9 8 7 7 7 8 8 8 7 8 10 11 12 14 15 15 16
10 10 10 10 10 10 10 10 10 10 10 10 10 11 11 11 11 11 11 10 10 10 9 9 9 9 9 9 8 7 6 5 6 7 8 7 6 7 9 11 12 13 14 15 15
10 10 10 11 10 10 10 11 11 10 10 10 11 11 11 11 11 11 11 11 11 10 10 10 9 9 9 7 6 5 4 4 5 7 7 6 6 7 9 11 11 12 13 14 15
10 11 11 11 11 11 11 11 11 11 11 11 10 10 10 11 11 11 11 11 11 10 10 9 8 8 7 6 5 4 4 4 5 6 6 6 5 7 9 10 11 11 12 13 14
10 11 11 11 11 12 11 11 10 10 11 10 10 10 10 11 11 11 11 11 10 9 8 8 7 6 7 7 6 5 4 4 5 6 6 5 5 6 7 9 10 11 12 12 13
10 10 11 11 12 12 11 11 11 10 10 10 10 10 10 11 11 11 11 10 9 8 7 7 6 7 7 7 6 5 4 4 5 6 6 4 4 5 6 7 9 10 11 12 13
11 10 11 11 12 12 12 12 11 11 10 10 10 10 10 10 10 10 10 10 9 8 7 7 7 8 7 7 6 5 4 4 4 5 5 4 3 4 5 6 8 9 10 11 12
11 11 11 11 12 12 12 12 12 11 9 9 10 11 11 10 10 10 10 10 9 8 7 7 7 7 7 6 5 5 5 5 4 3 3 3 2 3 4 5 6 8 9 10 11
11 11 10 11 11 12 12 12 12 9 7 8 10 11 11 10 10 10 10 10 9 8 8 7 7 7 7 6 6 6 6 5 4 3 2 2 2 2 3 4 5 6 8 9 10
12 11 10 10 11 12 12 12 11 8 6 8 10 10 10 10 10 10 10 10 9 8 7 7 8 8 7 7 7 7 6 4 3 2 1 2 2 2 3 4 5 6 7 8 10
12 11 10 10 11 12 12 11 8 7 8 9 9 9 9 9 9 9 9 8 8 7 6 6 7 8 8 7 7 6 5 3 1 1 1 2 2 2 3 4 5 6 7 8 9
13 12 11 10 11 12 11 9 7 7 9 9 9 9 9 9 9 9 8 8 7 7 5 5 5 7 7 7 6 6 4 3 1 1 1 2 2 3 4 5 6 6 7 7 8
12 11 10 10 11 12 11 8 7 8 9 10 9 9 8 8 9 8 8 8 8 8 7 5 5 6 8 7 7 6 5 4 3 1 1 2 2 3 4 5 6 6 7 7 8
11 10 9 10 11 11 10 8 8 9 10 9 9 8 8 8 8 8 8 8 8 9 8 7 6 6 7 7 7 6 6 5 4 2 1 1 2 3 4 5 6 7 7 8 8
10 10 9 10 11 11 9 9 10 10 10 9 9 9 9 9 9 9 9 9 9 9 9 8 7 6 7 7 7 6 6 5 4 3 2 1 2 4 5 5 6 7 8 8 8
10 9 9 9 10 9 9 9 11 11 10 10 10 10 10 9 9 9 9 9 9 9 8 8 7 6 6 7 7 7 6 6 5 4 3 2 3 4 6 6 7 8 8 9 9
9 9 10 9 9 9 9 10 11 11 10 10 10 10 10 9 9 9 9 9 9 9 8 8 7 6 5 7 7 7 7 6 6 4 3 3 3 4 6 7 8 8 9 9 9
9 9 9 9 9 9 9 9 10 10 10 10 10 10 10 9 9 9 9 9 9 9 9 8 7 6 6 6 7 7 7 7 6 5 4 3 3 4 5 7 8 8 9 9 9
9 9 9 9 9 9 9 9 9 9 10 10 10 10 10 9 9 9 9 9 9 9 9 9 8 7 7 7 7 7 7 7 6 5 4 4 4 5 6 7 8 8 9 9 9
9 9 9 9 9 9 9 8 8 9 10 10 10 10 10 9 9 9 9 9 9 9 9 9 8 8 7 7 7 7 6 6 6 6 5 5 5 5 6 7 7 8 8 8 8
10 10 10 9 8 8 7 8 9 10 10 10 10 10 10 10 10 10 9 9 9 8 8 9 9 8 7 7 7 6 5 6 6 6 6 6 6 6 7 7 7 7 7 7 8